Powrót do katalogu

DMSP 5D-2 F11 DEB

AktywnyPO
NORAD 29077·DEBRIS·🇺🇸 United States

Wystrzelony Nov 28, 1991 z Vandenberg Space Force Base

Loading…

Następne Przeloty (najbliższe 24 godziny)

TLE

ŚwieżeSource: Space-Track

Epoka: Sep 14, 2026, 08:49 UTC

1 29077U 91082BY  26257.36749884  .00009858  00000-0  21113-2 0  9996
2 29077  98.6971  51.3342 0047612 255.4509 104.1405 14.58217509139285

Śledź DMSP 5D-2 F11 DEB w czasie rzeczywistym z AllMySat

Download on the App Store